Weather History for KECP - October, 2013

Change the Weather History Date:

Wednesday, October 16, 2013

  Actual Average Record
Temperature  
Mean Temperature 73 °F -  
Max Temperature 85 °F - 90 °F (2011)
Min Temperature 61 °F - 48 °F (2010)
Degree Days  
Heating Degree Days 0    
Cooling Degree Days 8    
Growing Degree Days 22 (Base 50)    
Moisture  
Dew Point 64 °F    
Average Humidity 72    
Maximum Humidity 100    
Minimum Humidity 44    
Precipitation  
Precipitation 0.00 in - 0.00 in (2015)
Month to date precipitation  
Year to date precipitation  
Sea Level Pressure  
Sea Level Pressure 30.01 in    
Wind  
Wind Speed 2 mph (NNE)    
Max Wind Speed 23 mph    
Max Gust Speed -    
Visibility 10 miles    
Events      
T = Trace of Precipitation, MM = Missing Value Source: NWS Daily Summary

Daily Weather History Graph

Daily Weather History Graph

Search for Another Location

Airport or City:

Trip Planner

Search our weather history database for the weather conditions in past years. The results will help you decide how hot, cold, wet, or windy it might be!

Date:

Astronomy

Oct. 16, 2013 Rise Set
Actual Time 7:46 AM EDT 7:10 PM EDT
Civil Twilight 7:21 AM EDT 7:34 PM EDT
Nautical Twilight 6:53 AM EDT 8:02 PM EDT
Astronomical Twilight 6:26 AM EDT 8:30 PM EDT
Moon 5:43 PM EDT (10/16) 5:22 AM EDT (10/16)
Length of Visible Light 12h 12m
Length of Day
11h 24m
Waxing Gibbous, 94% of the Moon is Illuminated
Oct 16
Waxing Gibbous
Oct 18
Full
Oct 26
Last Quarter
Nov 3
New
Nov 10
First Quarter

Hourly Weather History & Observations

Time (EDT) Temp. Heat Index Dew Point Humidity Pressure Visibility Wind Dir Wind Speed Gust Speed Precip Events Conditions
12:53 AM 66.0 °F - 64.9 °F 96% 30.04 in 10.0 mi NNE 3.5 mph - N/A   Clear
1:53 AM 64.9 °F - 64.9 °F 100% 30.04 in 10.0 mi Calm Calm - N/A   Clear
2:53 AM 64.0 °F - 64.0 °F 100% 30.03 in 10.0 mi Calm Calm - N/A   Clear
3:53 AM 63.0 °F - 63.0 °F 100% 30.01 in 9.0 mi Calm Calm - N/A   Clear
4:53 AM 63.0 °F - 63.0 °F 100% 30.00 in 10.0 mi East 4.6 mph - N/A   Clear
5:53 AM 62.1 °F - 62.1 °F 100% 30.02 in 9.0 mi NW 3.5 mph - N/A   Clear
6:53 AM 62.1 °F - 62.1 °F 100% 30.02 in 8.0 mi Calm Calm - N/A   Clear
7:32 AM 60.8 °F - 60.8 °F 100% 29.99 in 8.0 mi Calm Calm - N/A   Partly Cloudy
7:53 AM 61.0 °F - 61.0 °F 100% 30.03 in 6.0 mi Variable 4.6 mph - N/A   Partly Cloudy
8:53 AM 64.9 °F - 64.9 °F 100% 30.04 in 9.0 mi NE 5.8 mph - N/A   Clear
9:53 AM 71.1 °F - 66.0 °F 84% 30.05 in 10.0 mi Variable 4.6 mph - N/A   Clear
10:53 AM 75.9 °F - 66.0 °F 71% 30.06 in 10.0 mi Calm Calm - N/A   Clear
11:53 AM 79.0 °F - 66.0 °F 64% 30.06 in 10.0 mi Calm Calm - N/A   Clear
12:53 PM 80.1 °F 81.5 °F 63.0 °F 56% 30.05 in 10.0 mi Variable 4.6 mph - N/A   Scattered Clouds
1:53 PM 82.9 °F 84.0 °F 63.0 °F 51% 30.01 in 10.0 mi Calm Calm - N/A   Scattered Clouds
2:53 PM 82.9 °F 84.0 °F 63.0 °F 51% 29.99 in 10.0 mi Variable 3.5 mph - N/A   Scattered Clouds
3:53 PM 82.9 °F 83.7 °F 62.1 °F 49% 29.98 in 10.0 mi WSW 4.6 mph - N/A   Scattered Clouds
4:53 PM 84.0 °F 84.4 °F 61.0 °F 46% 29.97 in 10.0 mi North 3.5 mph - N/A   Partly Cloudy
5:53 PM 81.0 °F 82.7 °F 64.9 °F 58% 29.97 in 10.0 mi South 3.5 mph - N/A   Partly Cloudy
6:53 PM 77.0 °F - 68.0 °F 74% 29.97 in 10.0 mi SSW 6.9 mph - N/A   Clear
7:53 PM 73.0 °F - 69.1 °F 87% 29.99 in 10.0 mi Calm Calm - N/A   Clear
8:53 PM 70.0 °F - 69.1 °F 97% 30.00 in 10.0 mi Calm Calm - N/A   Clear
9:53 PM 69.1 °F - 68.0 °F 96% 30.01 in 10.0 mi Calm Calm - N/A   Clear
10:53 PM 66.9 °F - 66.9 °F 100% 30.02 in 10.0 mi Calm Calm - N/A   Clear
11:53 PM 66.0 °F - 64.9 °F 96% 30.01 in 10.0 mi Calm Calm - N/A   Clear